Time,TemperatureF,DewpointF,PressureIn,WindDirection,WindDirectionDegrees,WindSpeedMPH,WindSpeedGustMPH,Humidity,HourlyPrecipIn,Conditions,Clouds,dailyrainin,SoftwareType,DateUTC
2013-09-22 01:53:00,67.0,-99.9,-100.00,North,-999,-999.0,-999.0,-999,-99.99,,,-99.99,,2013-09-22 05:53:00,
2013-09-22 02:02:00,67.0,-99.9,-100.00,North,-999,-999.0,-999.0,-999,-99.99,,,-99.99,,2013-09-22 06:02:00,
2013-09-22 02:12:00,67.0,-99.9,-100.00,North,-999,-999.0,-999.0,-999,-99.99,,,-99.99,,2013-09-22 06:12:00,
2013-09-22 05:54:00,68.0,-99.9,-100.00,North,-999,-999.0,-999.0,-999,-99.99,,,0.00,,2013-09-22 09:54:00,
2013-09-22 06:04:00,68.0,-99.9,-100.00,North,-999,-999.0,-999.0,-999,-99.99,,,0.00,,2013-09-22 10:04:00,
2013-09-22 06:13:00,68.0,-99.9,-100.00,North,-999,-999.0,-999.0,-999,-99.99,,,0.00,,2013-09-22 10:13:00,
2013-09-22 06:54:00,64.0,-99.9,-100.00,North,-999,-999.0,-999.0,-999,0.54,,,0.54,,2013-09-22 10:54:00,
2013-09-22 07:12:00,64.0,-99.9,-100.00,North,-999,-999.0,-999.0,-999,0.54,,,0.54,,2013-09-22 11:12:00,
2013-09-22 07:52:00,61.0,-99.9,-100.00,North,-999,-999.0,-999.0,-999,0.13,,,0.67,,2013-09-22 11:52:00,
2013-09-22 08:02:00,61.0,-99.9,-100.00,North,-999,-999.0,-999.0,-999,0.13,,,0.67,,2013-09-22 12:02:00,
2013-09-22 08:12:00,61.0,-99.9,-100.00,North,-999,-999.0,-999.0,-999,0.13,,,0.67,,2013-09-22 12:12:00,
2013-09-22 08:52:00,60.0,-99.9,-100.00,North,-999,-999.0,-999.0,-999,0.04,,,-99.99,,2013-09-22 12:52:00,
2013-09-22 09:02:00,60.0,-99.9,-100.00,North,-999,-999.0,-999.0,-999,0.04,,,-99.99,,2013-09-22 13:02:00,
2013-09-22 09:12:00,60.0,-99.9,-100.00,North,-999,-999.0,-999.0,-999,0.04,,,-99.99,,2013-09-22 13:12:00,
2013-09-22 09:52:00,61.0,-99.9,-100.00,North,-999,-999.0,-999.0,-999,0.00,,,0.71,,2013-09-22 13:52:00,
2013-09-22 10:02:00,61.0,-99.9,-100.00,North,-999,-999.0,-999.0,-999,0.00,,,0.71,,2013-09-22 14:02:00,
2013-09-22 10:12:00,61.0,-99.9,-100.00,North,-999,-999.0,-999.0,-999,0.00,,,0.71,,2013-09-22 14:12:00,
2013-09-22 11:55:00,63.0,-99.9,-100.00,North,-999,-999.0,-999.0,-999,-99.99,,,0.72,,2013-09-22 15:55:00,
2013-09-22 12:04:00,63.0,-99.9,-100.00,North,-999,-999.0,-999.0,-999,-99.99,,,0.72,,2013-09-22 16:04:00,
2013-09-22 12:13:00,63.0,-99.9,-100.00,North,-999,-999.0,-999.0,-999,-99.99,,,0.72,,2013-09-22 16:13:00,
2013-09-22 12:54:00,64.0,-99.9,-100.00,North,-999,-999.0,-999.0,-999,0.00,,,-99.99,,2013-09-22 16:54:00,
2013-09-22 13:04:00,64.0,-99.9,-100.00,North,-999,-999.0,-999.0,-999,0.00,,,-99.99,,2013-09-22 17:04:00,
2013-09-22 13:12:00,64.0,-99.9,-100.00,North,-999,-999.0,-999.0,-999,0.00,,,-99.99,,2013-09-22 17:12:00,
2013-09-22 13:53:00,67.0,-99.9,-100.00,North,-999,-999.0,-999.0,-999,0.00,,,0.72,,2013-09-22 17:53:00,
2013-09-22 14:03:00,67.0,-99.9,-100.00,North,-999,-999.0,-999.0,-999,0.00,,,0.72,,2013-09-22 18:03:00,
2013-09-22 14:13:00,67.0,-99.9,-100.00,North,-999,-999.0,-999.0,-999,0.00,,,0.72,,2013-09-22 18:13:00,
2013-09-22 14:53:00,68.0,-99.9,-100.00,North,-999,-999.0,-999.0,-999,0.00,,,0.72,,2013-09-22 18:53:00,
2013-09-22 15:02:00,68.0,-99.9,-100.00,North,-999,-999.0,-999.0,-999,0.00,,,0.72,,2013-09-22 19:02:00,
2013-09-22 15:12:00,68.0,-99.9,-100.00,North,-999,-999.0,-999.0,-999,0.00,,,0.72,,2013-09-22 19:12:00,
2013-09-22 16:52:00,65.0,-99.9,-100.00,North,-999,-999.0,-999.0,-999,-99.99,,,-99.99,,2013-09-22 20:52:00,
2013-09-22 17:02:00,65.0,-99.9,-100.00,North,-999,-999.0,-999.0,-999,-99.99,,,-99.99,,2013-09-22 21:02:00,
2013-09-22 17:12:00,65.0,-99.9,-100.00,North,-999,-999.0,-999.0,-999,-99.99,,,-99.99,,2013-09-22 21:12:00,
2013-09-22 17:55:00,62.0,-99.9,-100.00,North,-999,-999.0,-999.0,-999,0.00,,,0.72,,2013-09-22 21:55:00,
2013-09-22 18:04:00,62.0,-99.9,-100.00,North,-999,-999.0,-999.0,-999,0.00,,,0.72,,2013-09-22 22:04:00,
2013-09-22 18:14:00,62.0,-99.9,-100.00,North,-999,-999.0,-999.0,-999,0.00,,,0.72,,2013-09-22 22:14:00,
2013-09-22 18:54:00,59.0,-99.9,-100.00,North,-999,-999.0,-999.0,-999,0.00,,,0.72,,2013-09-22 22:54:00,
2013-09-22 19:03:00,59.0,-99.9,-100.00,North,-999,-999.0,-999.0,-999,0.00,,,0.72,,2013-09-22 23:03:00,
2013-09-22 19:12:00,59.0,-99.9,-100.00,North,-999,-999.0,-999.0,-999,0.00,,,0.72,,2013-09-22 23:12:00,
2013-09-22 20:53:00,56.0,-99.9,-100.00,North,-999,-999.0,-999.0,-999,-99.99,,,0.72,,2013-09-23 00:53:00,
2013-09-22 21:02:00,56.0,-99.9,-100.00,North,-999,-999.0,-999.0,-999,-99.99,,,0.72,,2013-09-23 01:02:00,
2013-09-22 21:12:00,56.0,-99.9,-100.00,North,-999,-999.0,-999.0,-999,-99.99,,,0.72,,2013-09-23 01:12:00,
2013-09-22 21:53:00,55.0,-99.9,-100.00,North,-999,-999.0,-999.0,-999,0.00,,,0.72,,2013-09-23 01:53:00,
2013-09-22 22:02:00,55.0,-99.9,-100.00,North,-999,-999.0,-999.0,-999,0.00,,,0.72,,2013-09-23 02:02:00,
2013-09-22 22:12:00,55.0,-99.9,-100.00,North,-999,-999.0,-999.0,-999,0.00,,,0.72,,2013-09-23 02:12:00,
2013-09-22 22:52:00,54.0,-99.9,-100.00,North,-999,-999.0,-999.0,-999,0.00,,,-99.99,,2013-09-23 02:52:00,
2013-09-22 23:03:00,54.0,-99.9,-100.00,North,-999,-999.0,-999.0,-999,0.00,,,-99.99,,2013-09-23 03:03:00,
2013-09-22 23:12:00,54.0,-99.9,-100.00,North,-999,-999.0,-999.0,-999,0.00,,,-99.99,,2013-09-23 03:12:00,
2013-09-22 23:54:00,52.0,-99.9,-100.00,North,-999,-999.0,-999.0,-999,0.00,,,0.72,,2013-09-23 03:54:00,